Location: Unspecified
(0.0000°N, 0.0000°E)
Time: 14:50:55
(UTC+00:00)

Explorer 11/Cluster Stage 4 - Pass Details

Date: 01 March 2024
Orbit: 465 x 1219 km, 28.8° (Epoch: 24 April)

Event Time Altitude Azimuth Distance (km) Brightness Sun altitude
Exits shadow 05:13:13 - 323° (NW) 3,140 9.2 -14.6°
Reaches altitude 10° 05:14:13 10° 327° (NNW) 2,832 9.0 -14.4°
Maximum altitude 05:20:04 30° 25° (NNE) 1,589 8.3 -12.9°
Drops below altitude 10° 05:25:00 10° 85° (E) 2,366 10.5 -11.7°
Sets 05:27:33 0° 96° (E) 3,167 12.0 -11.1°
